EHI
0 0 0 0 0 0 0 0 1 2 4 8 17 32 43 47 47 45 39 29 21 17 14 12 8 7 9 10 10 9 9 9 9 9 9 8 5 3 1 1 2 4 4 4
0 0 0 0 0 0 0 0 2 5 9 15 25 36 46 49 46 41 34 27 20 15 11 9 7 6 8 9 8 7 8 8 8 7 8 7 5 3 2 1 2 5 5 5
0 0 0 0 0 0 1 1 4 10 18 26 32 39 45 46 41 32 27 24 18 11 7 5 4 4 6 6 5 4 5 6 5 5 5 5 4 4 3 3 3 5 5 5
0 0 0 0 0 1 2 4 6 14 24 32 35 37 37 35 31 26 23 22 15 8 4 3 1 1 3 3 2 1 2 3 3 3 3 3 4 4 3 3 3 3 3 3
0 0 0 0 0 1 3 6 9 16 26 32 35 36 32 26 25 24 22 19 13 8 5 3 1 0 1 1 1 0 0 1 1 1 1 2 3 3 2 2 1 1 1 1
0 0 0 0 0 1 3 6 10 17 25 30 32 34 31 27 24 23 20 15 12 9 6 4 2 1 2 2 1 1 1 0 0 0 0 1 1 1 1 1 0 0 0 0
0 0 0 0 0 0 2 6 13 19 24 27 28 28 29 28 24 20 15 12 10 9 7 5 3 2 2 2 3 3 2 1 0 0 0 0 0 0 0 0 0 0 0 0
0 0 0 0 0 1 4 10 18 23 26 29 30 28 26 24 20 16 13 10 9 8 6 5 4 3 2 2 3 4 3 1 0 0 0 0 0 0 0 0 0 0 0 1
1 1 2 3 4 6 10 16 21 24 26 29 30 26 21 18 15 14 12 10 8 6 5 4 3 3 2 2 3 3 2 1 0 0 0 0 0 0 0 0 0 0 0 1
2 2 5 8 11 13 15 17 20 21 21 22 23 19 16 13 11 12 11 10 8 5 4 3 2 2 1 2 2 1 1 0 0 0 0 0 0 0 0 0 0 0 0 1
1 2 5 9 12 14 14 15 16 16 14 14 14 13 11 9 9 8 8 6 5 4 3 3 2 1 1 2 2 1 0 0 0 0 0 0 0 0 0 0 0 0 0 0
0 1 2 5 8 11 11 12 12 11 10 9 9 8 7 6 5 4 3 3 3 3 3 3 2 2 2 2 2 1 0 0 0 0 0 0 0 0 0 0 0 0 0 0
0 0 1 2 6 9 10 9 8 7 6 6 5 3 2 2 1 1 1 1 2 2 2 2 1 1 1 1 1 0 0 0 0 0 0 0 0 0 0 0 0 0 0 0
0 1 2 3 6 8 9 7 5 4 3 3 2 0 0 0 0 0 0 1 1 1 0 0 0 0 0 0 0 0 0 0 0 0 0 0 0 0 0 0 0 0 0 0
1 2 3 4 6 7 6 4 3 3 1 1 0 0 0 0 0 0 0 0 0 0 0 0 0 0 0 0 0 0 0 0 0 0 0 0 0 0 0 0 0 0 0 0
1 2 4 5 5 4 3 2 2 2 1 0 0 0 0 0 0 0 0 0 0 0 0 0 0 0 0 0 0 0 0 0 0 0 0 0 0 0 0 0 0 0 0 0
1 2 3 3 3 2 1 1 1 1 0 0 0 0 0 0 0 0 0 0 0 0 0 0 0 0 0 0 0 0 0 0 0 0 0 0 0 0 0 0 0 0 0 0
0 1 1 1 1 0 0 0 0 0 0 0 0 0 0 0 0 0 0 0 0 0 0 0 0 0 0 0 0 0 0 0 0 0 0 0 0 0 0 0 0 0 0 0
0 0 0 0 0 0 0 0 0 0 0 0 0 0 0 0 0 0 0 0 0 0 0 0 0 0 0 0 0 0 0 0 0 0 0 0 0 0 0 0 0 0 0 0
0 0 0 0 0 0 0 0 0 0 0 0 0 0 0 0 0 0 0 0 0 0 0 0 0 0 0 0 0 0 0 0 0 0 0 0 0 0 0 0 0 0 0 0
0 0 0 0 0 0 0 0 0 0 0 0 0 0 0 0 0 0 0 0 0 0 0 0 0 0 0 0 0 0 0 0 0 0 0 0 0 0 0 0 0 0 0 0
0 0 0 0 0 0 0 0 0 0 0 0 0 0 0 0 0 0 0 0 0 0 0 0 0 0 0 0 0 0 0 0 0 0 0 0 0 0 0 0 0 0 0 0
0 0 0 0 0 0 0 0 0 0 0 0 0 0 0 0 0 0 0 0 0 0 0 0 0 0 0 0 0 0 0 0 0 0 0 0 0 0 0 0 0 0 0 0
0 0 0 0 0 0 0 0 0 0 0 0 0 0 0 0 0 0 0 0 0 0 0 0 0 0 0 0 0 0 0 0 0 0 0 0 0 0 0 0 0 0 0 0
0 0 0 0 0 0 0 0 0 0 0 0 0 0 0 0 0 0 0 0 0 0 0 0 0 0 0 0 0 0 0 0 0 0 0 0 0 0 0 0 0 0 0 0
0 0 0 0 0 0 0 0 0 0 0 0 0 0 0 0 0 0 0 0 0 0 0 0 0 0 0 0 0 0 0 0 0 0 0 0 0 0 0 0 0 0 0 0
0 0 0 0 0 0 0 0 0 0 0 0 0 0 0 0 0 0 0 0 0 0 0 0 0 0 0 0 0 0 0 0 0 0 0 0 0 0 0 0 0 0 0 0
Wind_Speed
7 6 2 2 3 4 6 9 9 9 10 10 11 11 11 10 11 10 9 8 7 6 6 6 6 5 5 5 5 5 5 4 4 3 3 3 3 3 3 3 3 3 3 3
1 2 1 2 5 5 6 6 6 7 6 7 7 7 9 11 13 11 10 9 8 7 7 7 6 6 5 5 5 5 5 4 3 4 4 4 3 3 3 3 2 3 3 3
2 2 3 4 5 4 3 4 8 9 9 10 9 11 12 12 11 10 10 9 9 7 6 6 5 6 6 5 5 5 4 4 4 4 4 3 4 3 3 3 3 3 3 3
2 2 4 9 5 2 2 1 3 7 10 14 13 10 7 8 10 9 9 10 9 7 5 5 5 5 6 6 5 5 4 4 4 4 4 4 4 4 3 3 3 4 4 4
4 3 4 6 5 1 3 2 1 9 12 11 11 9 5 3 6 8 8 8 8 7 7 5 6 6 7 6 5 5 5 4 4 4 4 4 4 4 3 4 5 4 5 6
4 4 5 6 6 1 7 2 1 9 13 12 9 6 3 4 7 8 8 8 7 7 7 6 5 6 7 6 5 5 4 4 4 4 5 5 4 4 4 5 6 6 7 6
4 3 5 5 6 3 5 6 3 7 10 8 5 6 8 8 8 8 8 8 8 8 6 4 5 7 6 6 5 5 5 5 5 4 4 5 5 4 5 6 7 7 8 6
3 3 6 5 3 3 6 3 6 8 9 9 10 10 9 9 9 9 8 8 8 8 6 5 5 7 7 5 4 5 6 6 6 5 5 5 6 6 6 7 8 7 7 7
4 5 5 2 2 3 6 9 7 8 10 13 12 9 9 7 7 8 8 7 7 7 7 5 5 6 7 5 5 7 7 7 6 6 6 5 6 7 6 6 6 5 5 6
2 2 2 3 5 5 6 8 9 10 11 12 12 10 9 7 6 7 7 6 6 7 7 5 4 5 5 6 6 8 8 7 6 6 6 6 5 5 5 5 5 5 5 6
1 1 5 7 6 6 8 10 11 10 9 9 11 10 9 8 7 7 6 5 6 7 7 6 5 5 5 6 7 8 8 7 6 6 7 7 7 6 5 3 3 5 5 5
3 3 3 1 1 5 9 9 10 11 9 8 9 10 9 7 5 6 6 6 7 7 7 6 6 6 5 5 7 8 7 6 5 5 6 6 7 8 13 10 11 10 8 7
4 2 3 2 3 6 7 8 9 10 10 9 8 9 10 8 5 6 7 7 7 7 7 6 6 6 5 5 6 7 7 6 5 5 6 6 6 7 7 9 13 13 11 11
3 4 4 3 4 6 8 9 10 10 9 9 9 9 9 8 7 7 6 6 6 7 7 7 7 6 5 5 7 7 7 7 6 5 5 6 6 6 6 7 7 6 7 10
1 4 5 4 6 7 8 9 10 9 8 8 8 8 8 8 7 6 5 6 7 7 7 6 7 6 5 6 7 7 6 5 5 5 6 6 6 6 6 7 6 6 5 6
3 4 6 7 7 8 8 9 9 7 7 7 7 7 8 8 8 7 6 6 7 7 6 6 6 5 5 6 7 6 5 10 8 6 6 6 6 6 6 6 6 5 5 5
6 5 5 7 7 7 7 7 7 7 7 7 8 8 9 9 8 7 6 6 7 6 5 6 5 5 5 6 6 5 5 7 10 7 5 6 6 6 6 6 6 5 4 4
5 5 6 8 8 8 7 7 8 8 7 7 8 8 8 8 8 7 7 7 7 7 5 4 5 5 5 5 5 5 5 4 5 5 5 6 6 6 6 6 6 6 4 5
5 5 6 7 7 8 8 8 8 7 7 8 9 8 7 7 7 7 7 7 8 6 4 4 7 6 5 6 6 5 5 6 6 6 6 8 7 6 6 6 5 5 5 4
6 6 6 6 7 8 8 8 8 8 7 9 9 9 8 7 7 7 7 5 4 3 5 5 5 4 4 5 7 5 6 7 7 6 5 5 5 5 5 5 5 5 4 4
6 6 7 7 7 7 7 8 8 8 8 8 9 9 8 7 6 6 6 5 3 4 5 6 4 4 3 4 6 5 5 5 5 5 5 5 5 5 5 5 5 5 5 5
4 6 7 7 8 7 6 7 8 9 9 8 8 9 9 8 7 5 4 4 4 6 4 3 3 4 5 5 4 4 5 5 5 5 5 5 5 5 5 5 5 5 5 5
5 6 7 7 8 9 8 7 8 9 9 8 8 8 7 6 5 5 4 3 4 6 4 3 4 6 5 3 4 4 5 5 5 5 5 5 5 5 5 5 5 5 5 5
7 7 7 7 9 10 9 8 7 7 7 7 6 6 6 5 4 2 4 6 6 6 4 4 6 6 4 3 4 4 4 4 4 4 4 4 4 4 5 5 5 5 5 6
7 7 8 8 8 7 8 8 8 7 7 5 5 4 3 4 4 4 4 5 7 6 3 3 5 4 3 3 3 4 3 3 4 4 4 4 4 4 4 4 5 5 4 5
6 6 5 6 5 5 5 5 5 5 5 5 3 3 3 4 5 5 4 4 5 5 3 2 2 3 3 3 3 3 3 4 4 4 4 4 4 4 4 5 6 5 5 5
6 5 5 5 4 4 4 4 5 4 4 5 4 3 4 4 4 4 4 3 3 3 2 2 2 2 2 2 3 3 3 3 3 3 3 4 4 4 5 6 5 5 5 5
Wind_Direction
198 207 199 224 242 206 181 184 182 204 189 200 190 175 164 153 145 141 143 145 145 141 137 136 139 143 139 137 139 141 139 145 160 161 145 137 137 141 137 145 164 163 153 152
227 236 257 286 277 250 221 194 179 159 188 194 170 150 151 153 150 151 156 156 148 145 146 152 157 153 139 137 137 134 138 143 142 138 134 132 134 137 132 130 131 134 138 141
241 316 36 284 250 236 233 198 166 177 192 162 152 161 164 159 156 160 160 151 145 151 155 158 159 148 144 146 134 130 133 131 126 126 123 125 133 128 134 142 133 125 131 133
141 77 221 246 257 205 168 255 187 161 156 158 156 152 145 150 150 152 154 148 147 153 155 152 142 132 130 128 128 127 121 120 123 126 127 122 116 121 127 123 120 116 112 115
122 162 266 292 306 218 137 351 89 138 140 138 123 90 68 108 132 142 145 144 146 150 146 141 138 134 128 129 131 128 126 126 130 133 128 124 125 123 116 111 105 100 98 100
128 153 215 248 287 295 100 32 296 137 142 143 124 123 178 143 120 117 118 125 128 128 120 127 135 134 131 135 133 133 132 131 123 123 128 127 127 119 111 110 105 99 90 87
157 189 246 264 302 38 119 206 190 138 144 141 133 148 144 128 115 114 115 115 121 119 115 125 131 126 129 131 136 136 125 117 109 107 113 116 112 106 109 108 104 98 92 82
150 176 244 299 14 124 183 156 115 115 119 111 109 111 118 121 119 118 114 112 117 116 112 108 117 123 125 128 132 123 118 113 107 102 102 105 109 104 105 110 108 104 101 92
179 205 248 300 119 134 134 115 109 111 116 118 115 119 120 122 123 119 117 116 115 115 111 101 106 119 124 124 120 116 112 110 106 100 94 100 111 112 109 108 112 113 112 107
54 350 346 45 79 83 96 103 106 111 115 118 120 120 116 116 117 114 110 111 112 112 109 103 100 102 113 117 117 115 113 110 107 106 97 88 92 99 108 115 119 122 123 121
67 329 28 30 46 78 87 93 96 98 104 113 119 117 118 118 116 113 110 107 109 115 115 113 105 100 106 117 118 113 113 112 107 103 105 94 84 73 84 78 120 135 133 134
219 233 149 181 26 92 97 101 107 105 97 99 108 111 108 105 105 108 109 109 108 107 110 112 108 103 104 114 121 121 117 116 116 117 113 108 104 83 61 71 76 84 100 114
199 193 142 137 85 85 99 107 107 109 114 110 103 108 110 109 101 98 100 104 109 111 111 111 107 101 103 113 116 119 123 124 121 122 122 120 118 115 104 74 69 74 84 98
164 119 92 94 99 91 94 95 95 93 94 102 105 106 107 105 102 100 102 107 109 108 107 108 107 103 103 107 111 114 117 120 122 122 122 122 121 119 119 118 109 82 69 87
132 125 137 124 102 98 100 98 96 95 97 97 103 110 112 112 110 106 103 105 104 104 104 105 107 108 112 113 113 116 119 122 121 121 118 117 117 116 115 114 114 112 104 87
148 123 129 125 117 110 106 109 112 115 113 112 111 110 109 109 108 106 104 110 114 113 112 110 108 112 115 117 116 114 117 126 126 125 122 121 121 122 121 121 120 122 125 126
142 148 138 132 127 122 121 126 130 128 124 123 125 123 118 113 110 108 103 100 103 105 108 113 115 115 113 114 115 118 121 128 128 124 127 132 132 131 129 128 128 129 132 135
140 150 149 145 140 133 129 130 129 125 124 124 122 121 121 122 123 121 118 112 105 98 92 102 110 112 115 116 115 117 117 119 123 123 124 127 127 127 127 128 130 130 126 123
99 104 110 121 131 132 134 135 132 126 123 125 127 125 121 119 121 121 120 119 118 117 114 112 115 109 110 121 123 119 122 123 120 118 119 127 127 127 130 132 133 134 135 134
82 86 94 105 114 123 128 130 130 126 127 130 127 123 120 121 121 119 117 111 114 128 133 127 119 113 118 123 122 122 127 129 129 129 130 133 135 137 139 141 142 145 146 147
94 99 101 106 106 110 121 128 131 130 130 131 131 132 130 125 122 121 121 114 108 115 122 125 121 122 127 132 128 127 127 128 130 136 140 140 140 142 144 147 150 153 153 153
97 107 108 110 109 106 107 114 121 122 123 125 126 127 126 124 119 110 104 119 131 127 122 122 123 128 133 130 128 134 136 137 137 139 143 144 146 148 152 153 155 158 159 163
93 102 106 107 108 105 100 103 112 119 122 125 129 132 130 128 129 130 127 131 132 129 124 127 131 128 123 121 131 136 138 140 143 146 150 151 153 157 159 161 163 163 164 169
94 96 99 102 103 104 103 102 103 106 111 113 118 125 127 124 117 116 128 135 135 130 127 142 143 135 123 118 125 128 134 141 145 149 152 152 155 157 159 159 162 167 170 171
96 97 97 99 99 102 106 108 105 103 103 104 107 110 117 130 137 140 133 135 136 130 128 142 139 130 123 125 126 129 136 147 151 151 149 149 153 155 158 161 164 166 170 175
93 95 95 97 102 105 107 108 108 109 112 111 105 106 108 110 118 123 126 135 137 134 134 138 134 125 125 127 133 136 139 141 139 141 147 151 156 159 163 169 172 173 176 179
85 88 91 90 87 94 101 107 113 117 121 123 120 118 119 117 117 123 126 128 133 136 138 141 142 139 130 127 129 132 138 144 148 148 152 159 166 172 177 178 181 184 184 185